Henderson, KY

1:40 AM CST on December 16, 2019 (GMT -0600)
Henderson City-County

Weather History for KEHR - October, 2019

Change the Weather History Date:

Friday, October 25, 2019

  Actual Average Record
Temperature  
Mean Temperature 52 °F -  
Max Temperature 55 °F 66 °F 88 °F (1940)
Min Temperature 50 °F 45 °F 24 °F (2013)
Degree Days  
Heating Degree Days 12    
Growing Degree Days 2 (Base 50)    
Moisture  
Dew Point 48 °F    
Average Humidity 82    
Maximum Humidity 90    
Minimum Humidity 75    
Precipitation  
Precipitation 0.00 in - - ()
Sea Level Pressure  
Sea Level Pressure 30.22 in    
Wind  
Wind Speed 7 mph (NNE)    
Max Wind Speed 9 mph    
Max Gust Speed -    
Visibility 10 miles    
Events Rain    
Averages and records for this station are not official NWS values.
T = Trace of Precipitation, MM = Missing Value Source: NWS Daily Summary

Daily Weather History Graph

Daily Weather History Graph

Search for Another Location

Airport or City:

Astronomy

Oct. 25, 2019 Rise Set
Actual Time 7:08 AM CDT 6:00 PM CDT
Civil Twilight 6:41 AM CDT 6:27 PM CDT
Nautical Twilight 6:11 AM CDT 6:57 PM CDT
Astronomical Twilight 5:40 AM CDT 7:28 PM CDT
Moon 3:55 AM CDT (10/25) 4:58 PM CDT (10/25)
Length of Visible Light 11h 45m
Length of Day
10h 51m
Waning Crescent, 9% of the Moon is Illuminated
Oct 25
Waning Crescent
Oct 27
New
Nov 4
First Quarter
Nov 12
Full
Nov 19
Last Quarter

Hourly Weather History & Observations

Time (CDT) Temp. Dew Point Humidity Pressure Visibility Wind Dir Wind Speed Gust Speed Precip Events Conditions
12:56 AM 51.1 °F 48.0 °F 89% 30.29 in 10.0 mi NW 8.1 mph - N/A   Partly Cloudy
1:56 AM 51.1 °F 46.9 °F 86% 30.28 in 10.0 mi NNE 3.5 mph - N/A   Scattered Clouds
2:56 AM 51.1 °F 46.9 °F 86% 30.26 in 10.0 mi NNE 8.1 mph - N/A   Mostly Cloudy
3:56 AM 51.1 °F 46.9 °F 86% 30.28 in 10.0 mi North 4.6 mph - N/A   Mostly Cloudy
4:56 AM 51.1 °F 46.0 °F 83% 30.27 in 10.0 mi North 9.2 mph - N/A   Overcast
5:56 AM 51.1 °F 46.0 °F 83% 30.27 in 10.0 mi North 8.1 mph - N/A   Mostly Cloudy
6:56 AM 50.0 °F 46.0 °F 86% 30.28 in 10.0 mi NNE 8.1 mph - N/A   Mostly Cloudy
7:56 AM 51.1 °F 46.0 °F 83% 30.28 in 10.0 mi NE 6.9 mph - N/A   Scattered Clouds
8:56 AM 52.0 °F 46.9 °F 83% 30.28 in 10.0 mi ENE 9.2 mph - N/A   Overcast
9:56 AM 52.0 °F 46.9 °F 83% 30.28 in 10.0 mi NNE 8.1 mph - N/A   Overcast
10:56 AM 53.1 °F 46.9 °F 80% 30.27 in 10.0 mi North 8.1 mph - N/A   Partly Cloudy
11:56 AM 55.0 °F 48.0 °F 77% 30.27 in 10.0 mi North 6.9 mph - N/A   Partly Cloudy
12:56 PM 55.0 °F 48.0 °F 77% 30.24 in 10.0 mi North 8.1 mph - N/A   Partly Cloudy
1:56 PM 55.0 °F 48.0 °F 77% 30.22 in 10.0 mi NNE 6.9 mph - N/A   Clear
2:56 PM 55.0 °F 48.0 °F 77% 30.20 in 10.0 mi NNE 8.1 mph - N/A   Clear
3:56 PM 55.9 °F 48.0 °F 75% 30.19 in 10.0 mi NE 6.9 mph - N/A   Clear
4:56 PM 55.9 °F 48.9 °F 77% 30.19 in 10.0 mi ENE 5.8 mph - N/A   Clear
5:56 PM 55.0 °F 48.9 °F 80% 30.20 in 10.0 mi North 5.8 mph - N/A   Overcast
6:56 PM 55.0 °F 48.9 °F 80% 30.18 in 10.0 mi ENE 5.8 mph - N/A   Mostly Cloudy
7:56 PM 55.0 °F 48.9 °F 80% 30.18 in 10.0 mi NE 4.6 mph - N/A   Overcast
8:56 PM 55.0 °F 48.9 °F 80% 30.16 in 10.0 mi NE 5.8 mph - N/A   Mostly Cloudy
9:56 PM 55.0 °F 50.0 °F 83% 30.14 in 10.0 mi NE 8.1 mph - N/A   Mostly Cloudy
10:56 PM 55.0 °F 50.0 °F 83% 30.13 in 10.0 mi NE 6.9 mph - N/A   Mostly Cloudy
11:21 PM 55.4 °F 50.0 °F 82% 30.11 in 10.0 mi ENE 8.1 mph - N/A   Overcast
11:56 PM 54.0 °F 51.1 °F 90% 30.09 in 10.0 mi East 6.9 mph - 0.00 in Rain Light Rain